• In Kazakhstan
  • List of Countries
  • For 7 days
  • Water Temperature
  • Satellite Maps
  • Weather Map
  • News
  • Weather Widgets
  • user-avatar
    Login

    Hourly Weather Escaldes-Engordany

    Today, 17 January, Thursday

    Time Temperature Precipitation Wind Pressure Humidity
    00:00 0°C° 0 mm 1 mps 635 mmHg 68%
    01:00 0°C° 0 mm 1 mps 634 mmHg 69%
    02:00 0°C° 0 mm 1 mps 634 mmHg 70%
    03:00 -1°C° 0 mm 1 mps 634 mmHg 70%
    04:00 -1°C° 0 mm 1 mps 634 mmHg 74%
    05:00 -1°C° 0 mm 1 mps 634 mmHg 78%
    06:00 -1°C° 0 mm 1 mps 633 mmHg 81%
    07:00 0°C° 0 mm 1 mps 634 mmHg 79%
    08:00 -1°C° 0 mm 2 mps 635 mmHg 78%
    09:00 +1°C° 0 mm 2 mps 635 mmHg 76%
    10:00 +2°C° 0.3 mm 2 mps 635 mmHg 74%
    11:00 +3°C° 0.3 mm 2 mps 636 mmHg 73%
    12:00 +3°C° 0.3 mm 2 mps 636 mmHg 71%
    13:00 +3°C° 0.3 mm 2 mps 636 mmHg 73%
    14:00 +2°C° 0.3 mm 2 mps 635 mmHg 75%
    15:00 +2°C° 0.3 mm 2 mps 635 mmHg 77%
    16:00 +1°C° 0.2 mm 2 mps 635 mmHg 80%
    17:00 -1°C° 0.2 mm 2 mps 635 mmHg 83%
    18:00 -2°C° 0.2 mm 2 mps 635 mmHg 86%
    19:00 -3°C° 0 mm 2 mps 635 mmHg 86%
    20:00 -4°C° 0 mm 2 mps 635 mmHg 86%
    21:00 -5°C° 0 mm 2 mps 635 mmHg 86%
    22:00 -5°C° 0 mm 2 mps 635 mmHg 86%
    23:00 -5°C° 0 mm 2 mps 635 mmHg 86%

    Tomorrow, 18 January, Friday

    Time Temperature Precipitation Wind Pressure Humidity
    00:00 -5°C° 0 mm 2 mps 635 mmHg 87%
    01:00 -6°C° 0 mm 2 mps 634 mmHg 86%
    02:00 -6°C° 0 mm 2 mps 634 mmHg 86%
    03:00 -6°C° 0 mm 2 mps 634 mmHg 85%
    04:00 -6°C° 0 mm 2 mps 634 mmHg 83%
    05:00 -7°C° 0 mm 2 mps 634 mmHg 81%
    06:00 -7°C° 0 mm 2 mps 633 mmHg 79%
    07:00 -5°C° 0 mm 2 mps 634 mmHg 76%
    08:00 -4°C° 0 mm 2 mps 634 mmHg 74%
    09:00 -3°C° 0 mm 2 mps 635 mmHg 71%
    10:00 -2°C° 0 mm 2 mps 635 mmHg 66%
    11:00 -1°C° 0 mm 2 mps 636 mmHg 61%
    12:00 +2°C° 0 mm 2 mps 636 mmHg 56%
    13:00 +1°C° 0 mm 2 mps 635 mmHg 58%
    14:00 +2°C° 0 mm 1 mps 635 mmHg 60%
    15:00 +2°C° 0 mm 1 mps 634 mmHg 62%
    16:00 +1°C° 0 mm 1 mps 634 mmHg 69%
    17:00 -1°C° 0 mm 1 mps 634 mmHg 75%
    18:00 -2°C° 0 mm 1 mps 634 mmHg 82%
    19:00 -2°C° 0 mm 1 mps 634 mmHg 82%
    20:00 -3°C° 0 mm 1 mps 634 mmHg 83%
    21:00 -3°C° 0 mm 1 mps 634 mmHg 83%
    22:00 -3°C° 0 mm 1 mps 634 mmHg 83%
    23:00 -3°C° 0 mm 1 mps 633 mmHg 83%

    Day after tomorrow, 19 January, Saturday

    Time Temperature Precipitation Wind Pressure Humidity
    00:00 -4°C° 0 mm 1 mps 633 mmHg 83%
    01:00 -4°C° 0 mm 1 mps 633 mmHg 83%
    02:00 -4°C° 0 mm 1 mps 633 mmHg 82%
    03:00 -4°C° 0 mm 1 mps 633 mmHg 82%
    04:00 -4°C° 0 mm 1 mps 633 mmHg 81%
    05:00 -3°C° 0 mm 1 mps 632 mmHg 80%
    06:00 -3°C° 0 mm 1 mps 632 mmHg 80%
    07:00 -2°C° 0 mm 1 mps 633 mmHg 74%
    08:00 -1°C° 0 mm 1 mps 633 mmHg 69%
    09:00 0°C° 0 mm 1 mps 634 mmHg 64%
    10:00 +2°C° 0 mm 1 mps 634 mmHg 61%
    11:00 +3°C° 0 mm 1 mps 634 mmHg 58%
    12:00 +3°C° 0 mm 2 mps 634 mmHg 55%
    13:00 +3°C° 0 mm 2 mps 633 mmHg 59%
    14:00 +2°C° 0 mm 2 mps 632 mmHg 63%
    15:00 +1°C° 0 mm 2 mps 632 mmHg 68%
    16:00 -1°C° 0.1 mm 2 mps 631 mmHg 74%
    17:00 -2°C° 0.1 mm 2 mps 631 mmHg 81%
    18:00 -3°C° 0.1 mm 2 mps 630 mmHg 88%
    19:00 -2°C° 0.2 mm 2 mps 630 mmHg 89%
    20:00 -2°C° 0.2 mm 2 mps 630 mmHg 91%
    21:00 0°C° 0.2 mm 1 mps 630 mmHg 92%
    22:00 0°C° 0.1 mm 1 mps 630 mmHg 93%
    23:00 0°C° 0.1 mm 1 mps 630 mmHg 93%

    20 January, Sunday

    Time Temperature Precipitation Wind Pressure Humidity
    00:00 0°C° 0.1 mm 1 mps 630 mmHg 93%
    01:00 0°C° 0.1 mm 1 mps 630 mmHg 92%
    02:00 0°C° 0.1 mm 1 mps 630 mmHg 91%
    03:00 +1°C° 0.1 mm 1 mps 630 mmHg 90%
    04:00 +1°C° 0.1 mm 1 mps 630 mmHg 89%
    05:00 -1°C° 0.1 mm 2 mps 631 mmHg 89%
    06:00 -1°C° 0.1 mm 2 mps 631 mmHg 88%
    07:00 -1°C° 0.1 mm 2 mps 632 mmHg 86%
    08:00 +1°C° 0.1 mm 2 mps 633 mmHg 85%
    09:00 0°C° 0.1 mm 3 mps 633 mmHg 83%
    10:00 0°C° 0.1 mm 3 mps 634 mmHg 80%
    11:00 +1°C° 0.1 mm 3 mps 634 mmHg 77%
    12:00 +1°C° 0.1 mm 3 mps 635 mmHg 74%
    13:00 +1°C° 0.1 mm 3 mps 635 mmHg 74%
    14:00 +1°C° 0.1 mm 3 mps 635 mmHg 74%
    15:00 0°C° 0.1 mm 3 mps 635 mmHg 74%
    16:00 -1°C° 0.1 mm 3 mps 635 mmHg 77%
    17:00 -2°C° 0.1 mm 3 mps 635 mmHg 81%
    18:00 -5°C° 0.1 mm 3 mps 635 mmHg 85%
    19:00 -5°C° 0 mm 3 mps 635 mmHg 85%
    20:00 -5°C° 0 mm 3 mps 636 mmHg 85%
    21:00 -5°C° 0 mm 3 mps 636 mmHg 85%
    22:00 -5°C° 0 mm 3 mps 636 mmHg 86%
    23:00 -5°C° 0 mm 3 mps 636 mmHg 86%

    21 January, Monday

    Time Temperature Precipitation Wind Pressure Humidity
    00:00 -4°C° 0 mm 3 mps 637 mmHg 86%
    01:00 -4°C° 0.1 mm 3 mps 637 mmHg 86%
    02:00 -4°C° 0.1 mm 3 mps 637 mmHg 86%
    03:00 -4°C° 0.1 mm 3 mps 637 mmHg 86%
    04:00 -4°C° 0.1 mm 3 mps 637 mmHg 87%
    05:00 -4°C° 0.1 mm 3 mps 637 mmHg 87%
    06:00 -4°C° 0.1 mm 3 mps 637 mmHg 88%
    07:00 -4°C° 0.1 mm 3 mps 637 mmHg 84%
    08:00 -2°C° 0.1 mm 3 mps 638 mmHg 81%
    09:00 -2°C° 0.1 mm 3 mps 639 mmHg 78%
    10:00 -1°C° 0.1 mm 3 mps 639 mmHg 73%
    11:00 0°C° 0.1 mm 3 mps 639 mmHg 69%
    12:00 0°C° 0.1 mm 3 mps 639 mmHg 65%
    13:00 0°C° 0 mm 3 mps 638 mmHg 65%
    14:00 0°C° 0 mm 3 mps 638 mmHg 65%
    15:00 0°C° 0 mm 3 mps 637 mmHg 66%
    16:00 -2°C° 0 mm 2 mps 637 mmHg 73%
    17:00 -4°C° 0 mm 2 mps 636 mmHg 80%
    18:00 -6°C° 0 mm 2 mps 636 mmHg 87%
    19:00 -6°C° 0 mm 2 mps 635 mmHg 86%
    20:00 -7°C° 0 mm 2 mps 635 mmHg 84%
    21:00 -7°C° 0 mm 2 mps 635 mmHg 83%
    22:00 -7°C° 0 mm 2 mps 634 mmHg 79%
    23:00 -6°C° 0 mm 1 mps 634 mmHg 75%

    22 January, Tuesday

    Time Temperature Precipitation Wind Pressure Humidity
    00:00 -6°C° 0 mm 1 mps 633 mmHg 71%
    01:00 -6°C° 0 mm 1 mps 632 mmHg 67%
    02:00 -6°C° 0 mm 1 mps 632 mmHg 63%
    03:00 -4°C° 0 mm 1 mps 631 mmHg 59%
    04:00 -4°C° 0 mm 1 mps 630 mmHg 64%
    05:00 -5°C° 0 mm 2 mps 629 mmHg 69%
    06:00 -5°C° 0 mm 2 mps 629 mmHg 74%
    07:00 -2°C° 0.1 mm 1 mps 628 mmHg 77%
    08:00 -2°C° 0.1 mm 1 mps 628 mmHg 79%
    09:00 -2°C° 0.1 mm 1 mps 627 mmHg 82%
    10:00 -1°C° 0.6 mm 1 mps 627 mmHg 83%
    11:00 -3°C° 0.6 mm 2 mps 627 mmHg 83%
    12:00 -3°C° 0.6 mm 2 mps 626 mmHg 84%
    13:00 -3°C° 0.6 mm 2 mps 626 mmHg 83%
    14:00 -4°C° 0.6 mm 3 mps 625 mmHg 83%
    15:00 -5°C° 0.6 mm 3 mps 624 mmHg 83%
    16:00 -6°C° 0.1 mm 3 mps 624 mmHg 84%
    17:00 -6°C° 0.1 mm 2 mps 623 mmHg 85%
    18:00 -7°C° 0.1 mm 2 mps 623 mmHg 86%
    19:00 -7°C° 0.1 mm 2 mps 623 mmHg 86%
    20:00 -7°C° 0.1 mm 2 mps 623 mmHg 85%
    21:00 -8°C° 0.1 mm 3 mps 623 mmHg 85%
    22:00 -8°C° 0.1 mm 3 mps 623 mmHg 85%
    23:00 -7°C° 0.1 mm 2 mps 622 mmHg 85%
    Show more